Regional Weather Roundup
Issued by NWS Binghamton, NY

Home | Current Version | Previous Version | Text Only | Print | Product List | Glossary On
Versions: 1 2 3 4 5 6 7 8 9 10 11 12 13 14 15 16 17 18 19 20 21 22 23 24 25 26 27 28 29 30 31 32 33 34 35 36 37 38 39 40 41 42 43 44 45 46 47 48 49 50
000
ASUS41 KBGM 310310
RWRBGM
RWRBGM
BINGHAMTON REGIONAL WEATHER ROUNDUP
NATIONAL WEATHER SERVICE BINGHAMTON NY
1100 PM EDT SAT AUG 30 2014

Note: "fair" indicates few or no clouds below 12,000 feet with no
significant weather and/or obstructions to visibility.

* = Station(s) that does not report precipitation, such as rain,
snow, etc, also no thunder or fog.

!NYZ009-015>018-022>025-036-037-044>046-055>057-062-310400
...CENTRAL NEW YORK...

CITY           SKY/WX    TMP DP  RH WIND       PRES   REMARKS
BINGHAMTON     CLOUDY    68  62  81 S9        30.13S
CORTLAND       CLOUDY    70  64  83 SW13G18   30.11S
DANSVILLE      PTCLDY    74  66  76 S6        30.03F
ELMIRA         CLOUDY    73  67  81 SW6       30.09S
ITHACA         CLOUDY    71  65  81 S12       30.10S
HAMILTON       CLOUDY    72  63  73 S9        30.10S
MONTICELLO     MOCLDY    66  61  82 S5        30.19F
NORWICH        CLOUDY    70  63  78 S5        30.12S
PENN YAN       PTCLDY    72  65  78 S13       30.05S
ROME           PTCLDY    70  64  81 E5        30.07S
SIDNEY         CLOUDY    70  64  83 SW5G16    30.12S
SYRACUSE       MOCLDY    74  64  71 S10       30.02R
$$

!PAZ038>040-043-044-047-048-072-310400
...NORTHEAST PENNSYLVANIA...

CITY           SKY/WX    TMP DP  RH WIND       PRES   REMARKS
HAZLETON       CLOUDY    70  61  73 S3        30.21S
SCRANTON       CLOUDY    72  62  71 S6        30.14S
TOWANDA*       PTCLDY    72  66  83 N3        30.11S
$$
&&
KEY
WCI = WIND CHILL INDEX
VSB = VISIBILITY
HX  = HEAT INDEX
$$



USA.gov is the U.S. government's official web portal to all federal, state and local government web resources and services.